datetime,ave air temp
2006-06-28,64.22
2006-06-29,59.36
2006-06-30,62.78
2006-07-01,64.4
2006-07-02,65.12
2006-07-03,63.5
2006-07-04,62.06
2006-07-05,59.18
2006-07-06,54.68
2006-07-07,57.56
2006-07-08,66.56
2006-07-09,67.46
2006-07-10,64.4
2006-07-11,61.34
2006-07-12,55.76
2006-07-13,60.26
2006-07-14,63.68
2006-07-15,64.76
2006-07-16,66.74
2006-07-17,64.76
2006-07-18,62.24
2006-07-19,65.3
2006-07-20,70.16
2006-07-21,66.74
2006-07-22,74.84
2006-07-23,73.94
2006-07-24,71.6
2006-07-25,69.08
2006-07-26,69.98
2006-07-27,70.88
2006-07-28,66.2
2006-07-29,58.46
2006-07-30,52.16
2006-07-31,51.98
2006-08-01,54.14
2006-08-02,56.66
2006-08-03,61.88
2006-08-04,63.5
2006-08-05,64.4
2006-08-06,61.34
2006-08-07,58.64
2006-08-08,56.66
2006-08-09,58.46
2006-08-10,59.0
2006-08-11,56.12
2006-08-12,55.94
2006-08-13,62.06
2006-08-14,62.78
2006-08-15,59.18
2006-08-16,51.98
2006-08-17,54.14
2006-08-18,62.24
2006-08-19,65.3
2006-08-20,67.1
2006-08-21,62.6
2006-08-22,60.98
2006-08-23,57.74
2006-08-24,54.68
2006-08-25,57.56
2006-08-26,60.26
2006-08-27,64.76
2006-08-28,66.38
2006-08-29,57.74
2006-08-30,50.0
2006-08-31,54.32
2006-09-01,61.7
2006-09-02,63.68
2006-09-03,63.68
2006-09-04,62.96
2006-09-05,65.48
2006-09-06,64.58
2006-09-07,63.68
2006-09-08,60.98
2006-09-09,54.5
2006-09-10,56.48
2006-09-11,62.6
2006-09-12,64.4
2006-09-13,58.82
2006-09-14,43.34
2006-09-15,37.04
2006-09-16,41.54
2006-09-17,48.74
2006-09-18,50.72
2006-09-19,41.0
2006-09-20,43.52
2006-09-21,44.06
2006-09-22,42.98
2006-09-23,48.74
2006-09-24,51.44
2006-09-25,55.04
2006-09-26,57.74
2006-09-27,60.44
2006-09-28,60.62
2006-09-29,60.8
2006-09-30,55.76
2006-10-01,51.26
2006-10-02,48.56
2006-10-03,46.94
2006-10-04,43.34
2006-10-05,45.32
2006-10-06,44.24
2006-10-07,42.62
2006-10-08,48.92
2006-10-09,44.24
2006-10-10,41.72
2006-10-11,47.66
2006-10-12,52.16
2006-10-13,53.78
2006-10-14,52.52
2006-10-15,44.24
2006-10-16,36.5
2006-10-17,35.78
2006-10-18,41.36
2006-10-19,
2006-10-20,45.5
2006-10-21,42.44
2006-10-22,44.96
2006-10-23,46.94
2006-10-24,39.02
2006-10-25,32.72
2006-10-26,40.1
2006-10-27,46.4
2006-10-28,49.46
2006-10-29,41.9
2006-10-30,28.76
2006-10-31,27.5
2006-11-01,32.9
2006-11-02,37.76
2006-11-03,40.1
2006-11-04,41.54
2006-11-05,45.5
2006-11-06,49.28
2006-11-07,49.28
2006-11-08,33.62
2006-11-09,28.04
2006-11-10,30.2
2006-11-11,28.22
2006-11-12,26.06
2006-11-13,32.18
2006-11-14,29.48
2006-11-15,33.62
2006-11-16,37.04
2006-11-17,34.52
2006-11-18,35.24
2006-11-19,41.54
2006-11-20,39.74
2006-11-21,33.08
2006-11-22,31.1
2006-11-23,26.42
2006-11-24,29.48
2006-11-25,27.32
2006-11-26,27.5
2006-11-27,20.3
2006-11-28,17.42
2006-11-29,15.44
2006-11-30,25.34
2006-12-01,23.18
2006-12-02,22.28
2006-12-03,25.7
2006-12-04,30.38
2006-12-05,34.16
2006-12-06,36.68
2006-12-07,35.24
2006-12-08,37.94
2006-12-09,36.68
2006-12-10,30.2
2006-12-11,30.92
2006-12-12,34.16
2006-12-13,35.78
2006-12-14,39.38
2006-12-15,21.02
2006-12-16,15.98
2006-12-17,17.06
2006-12-18,21.56
2006-12-19,25.7
2006-12-20,26.78
2006-12-21,28.22
2006-12-22,24.26
2006-12-23,31.82
2006-12-24,32.36
2006-12-25,34.34
2006-12-26,31.28
2006-12-27,24.08
2006-12-28,16.52
2006-12-29,21.02
2006-12-30,26.06
2006-12-31,29.48
2007-01-01,28.94
2007-01-02,34.34
2007-01-03,32.72
2007-01-04,22.28
2007-01-05,19.22
2007-01-06,27.5
2007-01-07,29.84
2007-01-08,32.72
2007-01-09,34.52
2007-01-10,21.38
2007-01-11,12.02
2007-01-12,7.88
2007-01-13,16.7
2007-01-14,16.16
2007-01-15,20.12
2007-01-16,24.26
2007-01-17,23.18
2007-01-18,28.04
2007-01-19,31.64
2007-01-20,26.78
2007-01-21,23.9
2007-01-22,28.22
2007-01-23,33.8
2007-01-24,37.22
2007-01-25,36.68
2007-01-26,33.8
2007-01-27,29.12
2007-01-28,26.42
2007-01-29,32.18
2007-01-30,30.56
2007-01-31,29.3
2007-02-01,27.14
2007-02-02,27.32
2007-02-03,36.68
2007-02-04,42.26
2007-02-05,43.52
2007-02-06,41.72
2007-02-07,35.06
2007-02-08,31.28
2007-02-09,34.34
2007-02-10,35.42
2007-02-11,31.28
2007-02-12,30.74
2007-02-13,30.38
2007-02-14,28.94
2007-02-15,37.76
2007-02-16,39.2
2007-02-17,38.66
2007-02-18,30.38
2007-02-19,27.5
2007-02-20,29.66
2007-02-21,28.04
2007-02-22,26.24
2007-02-23,21.38
2007-02-24,26.42
2007-02-25,24.8
2007-02-26,22.28
2007-02-27,19.94
2007-02-28,21.2
2007-03-01,24.98
2007-03-02,30.2
2007-03-03,35.06
2007-03-04,37.76
2007-03-05,38.66
2007-03-06,39.02
2007-03-07,34.34
2007-03-08,30.92
2007-03-09,33.44
2007-03-10,36.32
2007-03-11,45.86
2007-03-12,46.22
2007-03-13,42.98
2007-03-14,39.92
2007-03-15,42.44
2007-03-16,49.46
2007-03-17,48.74
2007-03-18,43.7
2007-03-19,39.92
2007-03-20,30.92
2007-03-21,32.54
2007-03-22,42.8
2007-03-23,45.32
2007-03-24,45.5
2007-03-25,37.04
2007-03-26,30.38
2007-03-27,27.14
2007-03-28,32.18
2007-03-29,40.64
2007-03-30,44.6
2007-03-31,39.38
2007-04-01,33.26
2007-04-02,33.62
2007-04-03,42.8
2007-04-04,44.78
2007-04-05,47.3
2007-04-06,51.8
2007-04-07,42.08
2007-04-08,39.56
2007-04-09,31.64
2007-04-10,33.08
2007-04-11,30.56
2007-04-12,29.48
2007-04-13,38.66
2007-04-14,33.8
2007-04-15,33.98
2007-04-16,39.92
2007-04-17,31.1
2007-04-18,27.86
2007-04-19,26.42
2007-04-20,32.9
2007-04-21,32.0
2007-04-22,33.8
2007-04-23,40.82
2007-04-24,46.04
2007-04-25,41.0
2007-04-26,42.8
2007-04-27,50.54
2007-04-28,53.24
2007-04-29,50.54
2007-04-30,48.74
2007-05-01,39.2
2007-05-02,33.08
2007-05-03,31.64
2007-05-04,32.18
2007-05-05,37.4
2007-05-06,49.46
2007-05-07,54.14
2007-05-08,56.3
2007-05-09,53.42
2007-05-10,52.34
2007-05-11,51.62
2007-05-12,46.04
2007-05-13,45.32
2007-05-14,52.34
2007-05-15,57.2
2007-05-16,54.86
2007-05-17,51.8
2007-05-18,51.8
2007-05-19,47.12
2007-05-20,40.64
2007-05-21,38.3
2007-05-22,42.08
2007-05-23,50.0
2007-05-24,53.24
2007-05-25,54.32
2007-05-26,57.92
2007-05-27,50.36
2007-05-28,47.84
2007-05-29,57.92
2007-05-30,63.14
2007-05-31,65.12
2007-06-01,63.32
2007-06-02,63.14
2007-06-03,62.42
2007-06-04,54.14
2007-06-05,39.2
2007-06-06,36.68
2007-06-07,42.98
2007-06-08,51.8
2007-06-09,50.54
2007-06-10,47.84
2007-06-11,47.48
2007-06-12,54.68
2007-06-13,57.74
2007-06-14,56.84
2007-06-15,58.46
2007-06-16,52.7
2007-06-17,49.64
2007-06-18,57.2
2007-06-19,62.24
2007-06-20,62.24
2007-06-21,59.36
2007-06-22,54.5
2007-06-23,46.94
2007-06-24,45.68
2007-06-25,50.72
2007-06-26,61.16
2007-06-27,60.8
2007-06-28,55.76
2007-06-29,52.34
2007-06-30,55.04
2007-07-01,58.82
2007-07-02,59.54
2007-07-03,64.76
2007-07-04,73.04
2007-07-05,76.1
2007-07-06,71.42
2007-07-07,67.46
2007-07-08,66.74
2007-07-09,71.78
2007-07-10,73.4
2007-07-11,69.26
2007-07-12,66.92
2007-07-13,65.66
2007-07-14,65.84
2007-07-15,63.86
2007-07-16,63.68
2007-07-17,57.92
2007-07-18,51.26
2007-07-19,52.34
2007-07-20,54.14
2007-07-21,61.34
2007-07-22,64.76
2007-07-23,65.48
2007-07-24,63.14
2007-07-25,66.02
2007-07-26,66.74
2007-07-27,67.28
2007-07-28,66.02
2007-07-29,63.68
2007-07-30,64.04
2007-07-31,70.52
2007-08-01,73.94
2007-08-02,70.7
2007-08-03,64.4
2007-08-04,61.34
2007-08-05,58.28
2007-08-06,57.56
2007-08-07,57.2
2007-08-08,60.44
2007-08-09,59.54
2007-08-10,56.48
2007-08-11,60.44
2007-08-12,58.82
2007-08-13,59.72
2007-08-14,62.96
2007-08-15,64.76
2007-08-16,58.46
2007-08-17,53.06
2007-08-18,53.6
2007-08-19,51.26
2007-08-20,54.86
2007-08-21,57.92
2007-08-22,58.46
2007-08-23,62.06
2007-08-24,64.76
2007-08-25,63.86
2007-08-26,58.46
2007-08-27,56.3
2007-08-28,63.86
2007-08-29,68.54
2007-08-30,65.48
2007-08-31,61.34
2007-09-01,60.62
2007-09-02,61.7
2007-09-03,62.6
2007-09-04,50.72
2007-09-05,54.86
2007-09-06,60.26
2007-09-07,60.98
2007-09-08,57.38
2007-09-09,57.2
2007-09-10,60.44
2007-09-11,64.94
2007-09-12,64.58
2007-09-13,56.3
2007-09-14,49.28
2007-09-15,50.54
2007-09-16,51.62
2007-09-17,48.02
2007-09-18,43.88
2007-09-19,36.14
2007-09-20,50.54
2007-09-21,55.04
2007-09-22,51.8
2007-09-23,39.2
2007-09-24,41.36
2007-09-25,48.74
2007-09-26,53.6
2007-09-27,55.4
2007-09-28,38.3
2007-09-29,37.04
2007-09-30,39.56
2007-10-01,37.58
2007-10-02,43.16
2007-10-03,37.4
2007-10-04,32.72
2007-10-05,32.36
2007-10-06,37.04
2007-10-07,44.42
2007-10-08,48.56
2007-10-09,48.02
2007-10-10,37.04
2007-10-11,35.42
2007-10-12,37.04
2007-10-13,42.26
2007-10-14,46.76
2007-10-15,40.46
2007-10-16,34.34
2007-10-17,31.64
2007-10-18,38.84
2007-10-19,37.94
2007-10-20,30.38
2007-10-21,33.62
2007-10-22,44.78
2007-10-23,51.26
2007-10-24,50.36
2007-10-25,35.06
2007-10-26,35.6
2007-10-27,41.9
2007-10-28,46.04
2007-10-29,45.32
2007-10-30,42.44
2007-10-31,39.38
2007-11-01,40.46
2007-11-02,39.02
2007-11-03,43.34
2007-11-04,46.22
2007-11-05,45.14
2007-11-06,46.94
2007-11-07,47.12
2007-11-08,45.32
2007-11-09,44.78
2007-11-10,39.38
2007-11-11,32.54
2007-11-12,37.76
2007-11-13,36.14
2007-11-14,35.24
2007-11-15,41.9
2007-11-16,38.3
2007-11-17,42.8
2007-11-18,44.06
2007-11-19,29.84
2007-11-20,24.98
2007-11-21,24.98
2007-11-22,25.16
2007-11-23,28.76
2007-11-24,33.62
2007-11-25,34.7
2007-11-26,30.74
2007-11-27,24.98
2007-11-28,24.26
2007-11-29,24.98
2007-11-30,19.94
2007-12-01,20.3
2007-12-02,28.76
2007-12-03,36.86
2007-12-04,39.38
2007-12-05,33.62
2007-12-06,30.38
2007-12-07,26.6
2007-12-08,19.76
2007-12-09,21.92
2007-12-10,22.28
2007-12-11,21.74
2007-12-12,27.5
2007-12-13,24.08
2007-12-14,26.6
2007-12-15,26.6
2007-12-16,26.96
2007-12-17,27.86
2007-12-18,30.56
2007-12-19,28.58
2007-12-20,23.18
2007-12-21,17.6
2007-12-22,22.1
2007-12-23,33.44
2007-12-24,21.2
2007-12-25,17.6
2007-12-26,18.32
2007-12-27,17.78
2007-12-28,25.7
2007-12-29,28.94
2007-12-30,21.38
2007-12-31,15.8
2008-01-01,22.28
2008-01-02,29.12
2008-01-03,29.84
2008-01-04,29.84
2008-01-05,23.72
2008-01-06,21.38
2008-01-07,20.48
2008-01-08,25.88
2008-01-09,24.98
2008-01-10,31.28
2008-01-11,30.56
2008-01-12,30.2
2008-01-13,26.6
2008-01-14,29.12
2008-01-15,18.86
2008-01-16,17.96
2008-01-17,27.5
2008-01-18,30.74
2008-01-19,28.94
2008-01-20,23.9
2008-01-21,10.94
2008-01-22,12.2
2008-01-23,13.64
2008-01-24,13.64
2008-01-25,24.26
2008-01-26,29.3
2008-01-27,25.52
2008-01-28,18.5
2008-01-29,20.12
2008-01-30,21.2
2008-01-31,24.98
2008-02-01,21.56
2008-02-02,23.18
2008-02-03,23.72
2008-02-04,21.38
2008-02-05,22.64
2008-02-06,24.8
2008-02-07,28.76
2008-02-08,27.5
2008-02-09,32.36
2008-02-10,33.08
2008-02-11,35.78
2008-02-12,38.3
2008-02-13,26.78
2008-02-14,26.24
2008-02-15,35.42
2008-02-16,36.32
2008-02-17,34.7
2008-02-18,34.34
2008-02-19,33.08
2008-02-20,32.54
2008-02-21,28.94
2008-02-22,27.14
2008-02-23,25.52
2008-02-24,31.1
2008-02-25,32.9
2008-02-26,34.88
2008-02-27,36.86
2008-02-28,37.94
2008-02-29,38.3
2008-03-01,25.88
2008-03-02,26.42
2008-03-03,30.92
2008-03-04,28.58
2008-03-05,28.4
2008-03-06,32.9
2008-03-07,33.44
2008-03-08,34.52
2008-03-09,37.94
2008-03-10,40.28
2008-03-11,37.4
2008-03-12,36.86
2008-03-13,30.2
2008-03-14,26.6
2008-03-15,25.7
2008-03-16,27.32
2008-03-17,32.18
2008-03-18,35.78
2008-03-19,31.1
2008-03-20,27.5
2008-03-21,29.3
2008-03-22,35.06
2008-03-23,36.68
2008-03-24,33.62
2008-03-25,30.74
2008-03-26,24.98
2008-03-27,21.74
2008-03-28,22.28
2008-03-29,21.02
2008-03-30,19.58
2008-03-31,22.1
2008-04-01,28.22
2008-04-02,36.68
2008-04-03,39.2
2008-04-04,32.36
2008-04-05,27.86
2008-04-06,29.3
2008-04-07,28.94
2008-04-08,28.76
2008-04-09,31.64
2008-04-10,35.6
2008-04-11,42.98
2008-04-12,49.46
2008-04-13,49.46
2008-04-14,31.64
2008-04-15,25.88
2008-04-16,36.5
2008-04-17,43.88
2008-04-18,36.14
2008-04-19,23.18
2008-04-20,20.66
2008-04-21,24.98
2008-04-22,31.1
2008-04-23,27.5
2008-04-24,32.18
2008-04-25,36.68
2008-04-26,45.32
2008-04-27,49.46
2008-04-28,45.14
2008-04-29,29.3
2008-04-30,27.68
2008-05-01,34.16
2008-05-02,43.52
2008-05-03,42.8
2008-05-04,44.24
2008-05-05,50.54
2008-05-06,44.42
2008-05-07,41.36
2008-05-08,39.56
2008-05-09,41.0
2008-05-10,45.14
2008-05-11,37.04
2008-05-12,38.66
2008-05-13,47.12
2008-05-14,50.9
2008-05-15,56.48
2008-05-16,62.78
2008-05-17,65.3
2008-05-18,62.6
2008-05-19,60.98
2008-05-20,43.7
2008-05-21,34.7
2008-05-22,38.66
2008-05-23,37.76
2008-05-24,42.8
2008-05-25,43.88
2008-05-26,45.86
2008-05-27,44.24
2008-05-28,41.36
2008-05-29,41.9
2008-05-30,46.22
2008-05-31,47.48
2008-06-01,45.86
2008-06-02,45.14
2008-06-03,42.62
2008-06-04,39.02
2008-06-05,40.1
2008-06-06,36.5
2008-06-07,41.0
2008-06-08,48.92
2008-06-09,46.58
2008-06-10,35.96
2008-06-11,43.88
2008-06-12,52.16
2008-06-13,58.64
2008-06-14,57.2
2008-06-15,57.56
2008-06-16,58.64
2008-06-17,53.42
2008-06-18,51.44
2008-06-19,55.4
2008-06-20,60.26
2008-06-21,58.1
2008-06-22,54.14
2008-06-23,54.5
2008-06-24,56.48
2008-06-25,57.92
2008-06-26,59.72
2008-06-27,67.1
2008-06-28,71.96
2008-06-29,69.08
2008-06-30,65.84
2008-07-01,64.76
2008-07-02,66.38
2008-07-03,63.32
2008-07-04,58.28
2008-07-05,58.82
2008-07-06,62.42
2008-07-07,67.64
2008-07-08,69.62
2008-07-09,71.78
2008-07-10,65.48
2008-07-11,62.78
2008-07-12,68.18
2008-07-13,71.24
2008-07-14,70.52
2008-07-15,65.48
2008-07-16,62.06
2008-07-17,60.26
2008-07-18,58.28
2008-07-19,60.62
2008-07-20,65.84
2008-07-21,66.92
2008-07-22,60.08
2008-07-23,56.84
2008-07-24,61.7
2008-07-25,59.72
2008-07-26,59.36
2008-07-27,59.9
2008-07-28,58.82
2008-07-29,57.38
2008-07-30,57.56
2008-07-31,61.34
2008-08-01,60.44
2008-08-02,59.18
2008-08-03,59.36
2008-08-04,63.86
2008-08-05,66.02
2008-08-06,61.7
2008-08-07,65.12
2008-08-08,61.52
2008-08-09,54.5
2008-08-10,55.94
2008-08-11,61.7
2008-08-12,64.58
2008-08-13,65.48
2008-08-14,74.12
2008-08-15,75.92
2008-08-16,77.0
2008-08-17,73.04
2008-08-18,61.7
2008-08-19,54.5
2008-08-20,55.04
2008-08-21,53.24
2008-08-22,57.2
2008-08-23,63.86
2008-08-24,63.5
2008-08-25,51.62
2008-08-26,51.44
2008-08-27,57.92
2008-08-28,63.86
2008-08-29,65.66
2008-08-30,51.62
2008-08-31,39.92
2008-09-01,43.88
2008-09-02,51.98
2008-09-03,55.94
2008-09-04,60.44
2008-09-05,61.88
2008-09-06,61.88
2008-09-07,62.42
2008-09-08,62.24
2008-09-09,58.82
2008-09-10,55.76
2008-09-11,57.92
2008-09-12,61.16
2008-09-13,59.18
2008-09-14,63.68
2008-09-15,68.0
2008-09-16,67.64
2008-09-17,64.76
2008-09-18,59.72
2008-09-19,55.4
2008-09-20,45.68
2008-09-21,42.8
2008-09-22,43.16
2008-09-23,47.48
2008-09-24,55.58
2008-09-25,51.44
2008-09-26,52.52
2008-09-27,56.66
2008-09-28,60.08
2008-09-29,62.42
2008-09-30,62.96
2008-10-01,59.18
2008-10-02,50.36
2008-10-03,44.78
2008-10-04,41.18
2008-10-05,41.54
2008-10-06,46.04
2008-10-07,44.6
2008-10-08,38.3
2008-10-09,31.28
2008-10-10,30.02
2008-10-11,32.0
2008-10-12,36.5
2008-10-13,46.94
2008-10-14,45.68
2008-10-15,42.08
2008-10-16,48.92
2008-10-17,52.7
2008-10-18,48.02
2008-10-19,46.94
2008-10-20,41.0
2008-10-21,35.78
2008-10-22,42.8
2008-10-23,47.66
2008-10-24,48.56
2008-10-25,52.88
2008-10-26,50.18
2008-10-27,49.64
2008-10-28,49.1
2008-10-29,48.92
2008-10-30,48.74
2008-10-31,44.78
2008-11-01,43.7
2008-11-02,36.68
2008-11-03,32.54
2008-11-04,28.04
2008-11-05,28.94
2008-11-06,33.98
2008-11-07,40.1
2008-11-08,37.76
2008-11-09,33.8
2008-11-10,33.62
2008-11-11,37.58
2008-11-12,44.24
2008-11-13,41.18
2008-11-14,39.38
2008-11-15,44.24
2008-11-16,47.66
2008-11-17,47.84
2008-11-18,45.32
2008-11-19,39.92
2008-11-20,32.0
2008-11-21,29.3
2008-11-22,31.46
2008-11-23,30.38
2008-11-24,35.6
2008-11-25,38.3
2008-11-26,37.22
2008-11-27,34.7
2008-11-28,37.22
2008-11-29,41.0
2008-11-30,42.26
2008-12-01,42.44
2008-12-02,35.78
2008-12-03,32.9
2008-12-04,28.58
2008-12-05,33.8
2008-12-06,36.68
2008-12-07,36.14
2008-12-08,28.76
2008-12-09,29.48
2008-12-10,36.86
2008-12-11,34.88
2008-12-12,28.04
2008-12-13,19.94
2008-12-14,20.48
2008-12-15,7.16
2008-12-16,7.88
2008-12-17,12.74
2008-12-18,21.2
2008-12-19,17.78
2008-12-20,22.28
2008-12-21,28.22
2008-12-22,21.56
2008-12-23,19.4
2008-12-24,23.72
2008-12-25,19.4
2008-12-26,19.76
2008-12-27,29.3
2008-12-28,32.36
2008-12-29,31.1
2008-12-30,25.7
2008-12-31,31.46
2009-01-01,35.06
2009-01-02,25.88
2009-01-03,14.0
2009-01-04,14.36
2009-01-05,31.1
2009-01-06,34.34
2009-01-07,34.52
2009-01-08,30.56
2009-01-09,23.9
2009-01-10,29.12
2009-01-11,38.12
2009-01-12,38.84
2009-01-13,37.4
2009-01-14,39.74
2009-01-15,41.0
2009-01-16,40.64
2009-01-17,36.86
2009-01-18,31.46
2009-01-19,30.38
2009-01-20,33.08
2009-01-21,35.78
2009-01-22,34.34
2009-01-23,35.24
2009-01-24,32.9
2009-01-25,26.96
2009-01-26,16.16
2009-01-27,23.18
2009-01-28,30.2
2009-01-29,32.0
2009-01-30,36.68
2009-01-31,35.06
2009-02-01,29.66
2009-02-02,36.86
2009-02-03,40.46
2009-02-04,40.64
2009-02-05,35.42
2009-02-06,32.36
2009-02-07,31.82
2009-02-08,26.06
2009-02-09,21.56
2009-02-10,20.48
2009-02-11,23.36
2009-02-12,20.84
2009-02-13,23.18
2009-02-14,23.9
2009-02-15,28.22
2009-02-16,30.38
2009-02-17,28.22
2009-02-18,29.3
2009-02-19,30.02
2009-02-20,33.8
2009-02-21,35.6
2009-02-22,34.16
2009-02-23,34.34
2009-02-24,33.44
2009-02-25,31.28
2009-02-26,24.8
2009-02-27,27.14
2009-02-28,34.34
2009-03-01,38.66
2009-03-02,33.98
2009-03-03,28.4
2009-03-04,24.98
2009-03-05,24.26
2009-03-06,25.88
2009-03-07,25.88
2009-03-08,19.94
2009-03-09,17.6
2009-03-10,24.44
2009-03-11,28.76
2009-03-12,32.36
2009-03-13,36.68
2009-03-14,32.0
2009-03-15,31.64
2009-03-16,31.28
2009-03-17,31.46
2009-03-18,36.32
2009-03-19,40.28
2009-03-20,40.64
2009-03-21,33.08
2009-03-22,24.44
2009-03-23,24.98
2009-03-24,33.98
2009-03-25,31.46
2009-03-26,35.96
2009-03-27,41.0
2009-03-28,37.76
2009-03-29,24.26
2009-03-30,29.48
2009-03-31,32.54
2009-04-01,31.82
2009-04-02,31.28
2009-04-03,24.26
2009-04-04,29.48
2009-04-05,39.56
2009-04-06,44.78
2009-04-07,43.34
2009-04-08,35.78
2009-04-09,32.9
2009-04-10,33.44
2009-04-11,35.24
2009-04-12,39.74
2009-04-13,30.56
2009-04-14,24.44
2009-04-15,31.64
2009-04-16,36.86
2009-04-17,40.46
2009-04-18,44.24
2009-04-19,52.16
2009-04-20,55.76
2009-04-21,57.56
2009-04-22,51.26
2009-04-23,37.22
2009-04-24,34.7
2009-04-25,35.06
2009-04-26,34.88
2009-04-27,33.98
2009-04-28,31.82
2009-04-29,31.46
2009-04-30,37.76
2009-05-01,37.94
2009-05-02,37.04
2009-05-03,35.78
2009-05-04,35.96
2009-05-05,40.46
2009-05-06,39.74
2009-05-07,37.04
2009-05-08,39.92
2009-05-09,43.52
2009-05-10,46.76
2009-05-11,44.96
2009-05-12,33.44
2009-05-13,36.5
2009-05-14,43.7
2009-05-15,49.28
2009-05-16,57.02
2009-05-17,63.5
2009-05-18,60.8
2009-05-19,44.24
2009-05-20,44.6
2009-05-21,52.7
2009-05-22,54.5
2009-05-23,54.32
2009-05-24,53.06
2009-05-25,52.88
2009-05-26,53.6
2009-05-27,58.1
2009-05-28,61.16
2009-05-29,62.78
2009-05-30,62.96
2009-05-31,58.28
2009-06-01,56.3
2009-06-02,51.62
2009-06-03,50.36
2009-06-04,49.82
2009-06-05,47.3
2009-06-06,50.72
2009-06-07,50.0
2009-06-08,50.54
2009-06-09,50.9
2009-06-10,46.76
2009-06-11,46.76
2009-06-12,48.92
2009-06-13,50.0
2009-06-14,52.16
2009-06-15,52.7
2009-06-16,54.86
2009-06-17,56.3
2009-06-18,54.68
2009-06-19,52.52
2009-06-20,46.58
2009-06-21,42.44
2009-06-22,48.02
2009-06-23,57.74
2009-06-24,61.16
2009-06-25,58.64
2009-06-26,57.56
2009-06-27,63.32
2009-06-28,64.04
2009-06-29,61.88
2009-06-30,63.14
2009-07-01,65.84
2009-07-02,66.2
2009-07-03,66.92
2009-07-04,67.28
2009-07-05,63.86
2009-07-06,54.32
2009-07-07,51.08
2009-07-08,48.56
2009-07-09,54.5
2009-07-10,59.36
2009-07-11,59.72
2009-07-12,52.88
2009-07-13,55.94
2009-07-14,60.62
2009-07-15,66.02
2009-07-16,67.1
2009-07-17,68.18
2009-07-18,69.44
2009-07-19,65.3
2009-07-20,68.9
2009-07-21,69.26
2009-07-22,68.54
2009-07-23,71.42
2009-07-24,68.18
2009-07-25,68.0
2009-07-26,69.8
2009-07-27,72.14
2009-07-28,74.48
2009-07-29,71.96
2009-07-30,72.14
2009-07-31,71.6
2009-08-01,72.32
2009-08-02,65.3
2009-08-03,65.12
2009-08-04,64.58
2009-08-05,59.54
2009-08-06,49.1
2009-08-07,48.02
2009-08-08,51.98
2009-08-09,58.28
2009-08-10,61.34
2009-08-11,65.12
2009-08-12,59.9
2009-08-13,55.4
2009-08-14,48.92
2009-08-15,51.98
2009-08-16,58.1
2009-08-17,62.42
2009-08-18,67.1
2009-08-19,73.04
2009-08-20,72.86
2009-08-21,65.3
2009-08-22,63.5
2009-08-23,57.38
2009-08-24,60.44
2009-08-25,60.8
2009-08-26,62.24
2009-08-27,64.76
2009-08-28,59.0
2009-08-29,58.82
2009-08-30,59.54
2009-08-31,63.14
2009-09-01,60.62
2009-09-02,62.24
2009-09-03,59.54
2009-09-04,60.8
2009-09-05,54.32
2009-09-06,46.22
2009-09-07,46.58
2009-09-08,52.34
2009-09-09,59.72
2009-09-10,63.32
2009-09-11,67.46
2009-09-12,68.72
2009-09-13,61.52
2009-09-14,52.52
2009-09-15,56.3
2009-09-16,59.9
2009-09-17,57.38
2009-09-18,62.78
2009-09-19,57.38
2009-09-20,51.26
2009-09-21,58.28
2009-09-22,62.6
2009-09-23,66.56
2009-09-24,65.66
2009-09-25,67.46
2009-09-26,64.04
2009-09-27,62.78
2009-09-28,55.4
2009-09-29,35.78
2009-09-30,35.06
2009-10-01,39.74
2009-10-02,39.38
2009-10-03,32.18
2009-10-04,32.18
2009-10-05,37.58
2009-10-06,40.82
2009-10-07,48.2
2009-10-08,47.3
2009-10-09,48.2
2009-10-10,44.42
2009-10-11,46.22
2009-10-12,44.24
2009-10-13,39.38
2009-10-14,43.34
2009-10-15,46.76
2009-10-16,50.9
2009-10-17,51.08
2009-10-18,44.96
2009-10-19,38.3
2009-10-20,36.32
2009-10-21,41.72
2009-10-22,42.26
2009-10-23,45.32
2009-10-24,41.36
2009-10-25,41.9
2009-10-26,38.48
2009-10-27,28.94
2009-10-28,27.86
2009-10-29,38.48
2009-10-30,40.64
2009-10-31,44.42
2009-11-01,38.66
2009-11-02,39.38
2009-11-03,42.62
2009-11-04,47.84
2009-11-05,42.8
2009-11-06,33.8
2009-11-07,31.28
2009-11-08,32.36
2009-11-09,30.2
2009-11-10,34.16
2009-11-11,30.92
2009-11-12,23.0
2009-11-13,21.56
2009-11-14,23.18
2009-11-15,28.76
2009-11-16,35.06
2009-11-17,32.54
2009-11-18,27.68
2009-11-19,31.28
2009-11-20,30.2
2009-11-21,25.34
2009-11-22,27.68
2009-11-23,26.96
2009-11-24,33.62
2009-11-25,37.94
2009-11-26,37.22
2009-11-27,30.2
2009-11-28,27.86
2009-11-29,32.9
2009-11-30,35.96
2009-12-01,33.26
2009-12-02,23.54
2009-12-03,27.14
2009-12-04,30.38
2009-12-05,17.42
2009-12-06,12.02
2009-12-07,5.9
2009-12-08,3.2
2009-12-09,9.68
2009-12-10,16.52
2009-12-11,22.82
2009-12-12,28.58
2009-12-13,27.86
2009-12-14,25.52
2009-12-15,30.56
2009-12-16,32.0
2009-12-17,32.72
2009-12-18,34.7
2009-12-19,37.58
2009-12-20,34.88
2009-12-21,30.2
2009-12-22,21.02
2009-12-23,23.72
2009-12-24,28.4
2009-12-25,29.12
2009-12-26,25.88
2009-12-27,27.86
2009-12-28,26.06
2009-12-29,20.84
2009-12-30,26.6
2009-12-31,27.68
2010-01-01,32.0
2010-01-02,29.12
2010-01-03,30.56
2010-01-04,32.72
2010-01-05,35.78
2010-01-06,37.04
2010-01-07,35.24
2010-01-08,35.24
2010-01-09,35.24
2010-01-10,35.42
2010-01-11,39.2
2010-01-12,35.06
2010-01-13,32.0
2010-01-14,30.74
2010-01-15,35.42
2010-01-16,35.6
2010-01-17,32.18
2010-01-18,32.54
2010-01-19,30.92
2010-01-20,29.12
2010-01-21,28.76
2010-01-22,25.52
2010-01-23,24.98
2010-01-24,27.32
2010-01-25,30.02
2010-01-26,30.92
2010-01-27,28.4
2010-01-28,29.12
2010-01-29,32.9
2010-01-30,31.1
2010-01-31,26.96
2010-02-01,27.86
2010-02-02,30.74
2010-02-03,30.92
2010-02-04,31.1
2010-02-05,32.36
2010-02-06,32.18
2010-02-07,30.38
2010-02-08,30.02
2010-02-09,29.84
2010-02-10,27.68
2010-02-11,32.18
2010-02-12,32.0
2010-02-13,35.6
2010-02-14,34.7
2010-02-15,34.52
2010-02-16,37.76
2010-02-17,36.86
2010-02-18,31.82
2010-02-19,28.04
2010-02-20,26.42
2010-02-21,24.62
2010-02-22,25.52
2010-02-23,27.86
2010-02-24,31.64
2010-02-25,32.72
2010-02-26,33.26
2010-02-27,33.8
2010-02-28,35.06
2010-03-01,38.3
2010-03-02,35.78
2010-03-03,28.58
2010-03-04,30.38
2010-03-05,31.64
2010-03-06,36.5
2010-03-07,36.68
2010-03-08,27.5
2010-03-09,20.66
2010-03-10,24.62
2010-03-11,30.74
2010-03-12,28.22
2010-03-13,24.08
2010-03-14,31.28
2010-03-15,42.26
2010-03-16,42.98
2010-03-17,37.22
2010-03-18,35.24
2010-03-19,40.28
2010-03-20,43.34
2010-03-21,36.5
2010-03-22,32.9
2010-03-23,35.42
2010-03-24,41.72
2010-03-25,29.3
2010-03-26,29.12
2010-03-27,38.3
2010-03-28,38.3
2010-03-29,34.88
2010-03-30,25.52
2010-03-31,25.34
2010-04-01,25.88
2010-04-02,26.24
2010-04-03,25.16
2010-04-04,25.7
2010-04-05,25.7
2010-04-06,30.56
2010-04-07,38.84
2010-04-08,29.66
2010-04-09,29.66
2010-04-10,35.6
2010-04-11,35.78
2010-04-12,33.62
2010-04-13,34.16
2010-04-14,35.78
2010-04-15,39.56
2010-04-16,42.44
2010-04-17,42.8
2010-04-18,46.04
2010-04-19,45.5
2010-04-20,36.5
2010-04-21,32.9
2010-04-22,38.84
2010-04-23,42.8
2010-04-24,38.48
2010-04-25,43.88
2010-04-26,43.52
2010-04-27,31.64
2010-04-28,29.3
2010-04-29,29.48
2010-04-30,33.26
2010-05-01,36.86
2010-05-02,41.18
2010-05-03,37.76
2010-05-04,32.9
2010-05-05,28.58
2010-05-06,33.26
2010-05-07,40.64
2010-05-08,41.0
2010-05-09,40.46
2010-05-10,32.54
2010-05-11,38.3
2010-05-12,42.98
2010-05-13,48.38
2010-05-14,50.36
2010-05-15,52.7
2010-05-16,51.8
2010-05-17,47.12
2010-05-18,42.08
2010-05-19,38.3
2010-05-20,33.44
2010-05-21,29.66
2010-05-22,29.48
2010-05-23,33.98
2010-05-24,36.68
2010-05-25,37.58
2010-05-26,38.48